Flag for U.S.A. Weather past 2 weeks in Fort Lauderdale, Florida, U.S.A.

Now
73 °F

Passing clouds.


Feels Like: 69 °F
Forecast: 74 / 80 °F
Wind: 12 mph from East

Location: Fort Lauderdale / Hollywood International Airport

Current Time: Feb 28, 2015 at 11:09:18 PM

Latest Report: Feb 28, 2015 at 9:53 PM


Visibility: 10 mi

Pressure: 30.28 "Hg

Humidity: 97%

Dew point: 72 °F

Location of Fort LauderdaleLocation

Historic Weather in Fort Lauderdale — Graph

°F

Fort Lauderdale temperature yesterday

Maximum temperature yesterday: 76 °F (at 11:53 AM)
Minimum temperature yesterday: 66 °F (at 6:53 AM)
Average temperature yesterday: 70 °F

Past Weeks' High & Low Weather Summary

 TemperatureHumidityPressure
High84 °F (Feb 26, 1:53 PM)100% (Feb 24, 5:53 AM)30.34 "Hg (Feb 24, 5:53 AM)
Low40 °F (Feb 20, 4:53 AM)23% (Feb 19, 2:53 PM)29.80 "Hg (Feb 26, 2:53 AM)
Average67 °F71%30.10 "Hg
* Reported Feb 13 8:53 PM — Feb 28 8:53 PM, Fort Lauderdale, Weather by CustomWeather, © 2015

Note: Actual official high and low records may vary slightly from our data, if they occured in-between our weather recording intervals... More about our weather records

Advertising

Fort Lauderdale weather history for previous 24 hours

 ConditionsComfort  
Time TempWeatherWind HumidityBarometerVisibility
8:53 PM
Sat, Feb 28
73 °FMostly cloudy.9 mph97%30.27 "Hg9 mi
7:53 PM74 °FMostly cloudy.14 mph94%30.24 "Hg10 mi
6:53 PM74 °FOvercast.13 mph94%30.22 "Hg9 mi
5:53 PM74 °FBroken clouds.15 mph97%30.21 "Hg10 mi
4:53 PM74 °FMore clouds than sun.14 mph97%30.20 "Hg10 mi
3:53 PM73 °FOvercast.23 mph100%30.19 "Hg10 mi
2:53 PM74 °FLight rain. Mostly cloudy.15 mph100%30.20 "Hg9 mi
2:01 PM73 °FRain. Fog.9 mph94%30.22 "Hg3 mi
12:53 PM73 °FLight rain. Fog.15 mph94%30.24 "Hg4 mi
11:53 AM74 °FMore clouds than sun.10 mph94%30.25 "Hg9 mi
10:53 AM70 °FLight rain. More clouds than sun.14 mph100%30.26 "Hg8 mi
10:03 AM73 °FLight rain. Fog.12 mph97%30.27 "Hg4 mi
9:53 AM72 °FRain. Fog.14 mph100%30.26 "Hg2 mi
8:53 AM72 °FLight rain. Fog.8 mph97%30.24 "Hg4 mi
7:53 AM75 °FCloudy.13 mph88%30.21 "Hg8 mi
6:53 AM74 °FOvercast.12 mph91%30.19 "Hg10 mi
5:53 AM74 °FMostly cloudy.12 mph91%30.16 "Hg10 mi
4:53 AM74 °FPartly cloudy.13 mph88%30.15 "Hg10 mi
3:53 AM73 °FOvercast.9 mph90%30.14 "Hg10 mi
2:53 AM73 °FPassing clouds.8 mph88%30.14 "Hg10 mi
2:01 AM73 °FPassing clouds.12 mph88%30.14 "Hg10 mi
12:53 AM73 °FPartly cloudy.10 mph90%30.16 "Hg10 mi
11:53 PM
Fri, Feb 27
73 °FPartly cloudy.12 mph90%30.16 "Hg10 mi
Weather by CustomWeather, © 2015

See weather overviewHow to use our weather pages